Location: Laas
(43.4693°N, 0.3073°E)
Time: 14:53:11
(UTC+00:00)

In-Cosmos 22 Rocket - Pass Details

Date: 25 October 2020
Orbit: 790 x 888 km, 81.2° (Epoch: 23 November)

Event Time Altitude Azimuth Distance (km) Brightness Sun altitude
Rises 18:34:56 0° 349° (N) 3,304 7.4 -18.0°
Reaches altitude 10° 18:37:18 10° 350° (N) 2,377 6.7 -18.4°
Maximum altitude 18:42:40 89° 260° (W) 813 4.0 -19.4°
Drops below altitude 10° 18:48:07 10° 172° (S) 2,408 6.5 -20.3°
Sets 18:50:31 0° 172° (S) 3,351 7.2 -20.8°
